Satellite: GO-32
Catalog number: 25397
Epoch time:      08289.61664642
Element set:    0724
Inclination:      098.3535 deg
RA of node:       318.7681 deg
Eccentricity:    0.0000459
Arg of perigee:   218.7183 deg
Mean anomaly:     141.3966 deg
Mean motion:   14.23149947 rev/day
Decay rate:        9.7e-07 rev/day^2
Epoch rev:           53334
Checksum:              340

Satellite: NO-44
Catalog number: 26931
Epoch time:      08290.46315358
Element set:       2
Inclination:      067.0543 deg
RA of node:       332.2343 deg
Eccentricity:    0.0007117
Arg of perigee:   259.4199 deg
Mean anomaly:     100.6078 deg
Mean motion:   14.29536224 rev/day
Decay rate:        4.9e-07 rev/day^2
Epoch rev:           36774
Checksum:              296

Satellite: SO-50
Catalog number: 27607
Epoch time:      08289.78429532
Element set:     723
Inclination:      064.5595 deg
RA of node:       047.3756 deg
Eccentricity:    0.0085260
Arg of perigee:   256.1333 deg
Mean anomaly:     103.0264 deg
Mean motion:   14.71386458 rev/day
Decay rate:        4.9e-07 rev/day^2
Epoch rev:           31271
Checksum:              317

Satellite: CO-55
Catalog number: 27844
Epoch time:      08289.52481671
Element set:    0418
Inclination:      098.7180 deg
RA of node:       296.1345 deg
Eccentricity:    0.0010462
Arg of perigee:   125.3621 deg
Mean anomaly:     234.8531 deg
Mean motion:   14.20600843 rev/day
Decay rate:        4.4e-07 rev/day^2
Epoch rev:           27452
Checksum:              298

Satellite: CO-57
Catalog number: 27848
Epoch time:      08289.53913053
Element set:    0370
Inclination:      098.7188 deg
RA of node:       295.2252 deg
Eccentricity:    0.0010165
Arg of perigee:   129.2366 deg
Mean anomaly:     230.9716 deg
Mean motion:   14.20408616 rev/day
Decay rate:        5.3e-07 rev/day^2
Epoch rev:           27449
Checksum:              322

Satellite: AO-51
Catalog number: 28375
Epoch time:      08289.55392695
Element set:    0223
Inclination:      098.0654 deg
RA of node:       307.3246 deg
Eccentricity:    0.0083887
Arg of perigee:   146.9053 deg
Mean anomaly:     213.7429 deg
Mean motion:   14.40620636 rev/day
Decay rate:        1.0e-08 rev/day^2
Epoch rev:           22573
Checksum:              320

Satellite: CO-56
Catalog number: 28941
Epoch time:      08290.51905477
Element set:     467
Inclination:      098.1183 deg
RA of node:       058.4357 deg
Eccentricity:    0.0145905
Arg of perigee:   318.5398 deg
Mean anomaly:     040.4882 deg
Mean motion:   15.62829672 rev/day
Decay rate:     2.9633e-04 rev/day^2
Epoch rev:           14895
Checksum:              364

Satellite: CP3
Catalog number: 31128
Epoch time:      08289.65679084
Element set:    0459
Inclination:      098.0250 deg
RA of node:       347.9182 deg
Eccentricity:    0.0102329
Arg of perigee:   322.9554 deg
Mean anomaly:     036.4640 deg
Mean motion:   14.51981319 rev/day
Decay rate:       -4.8e-07 rev/day^2
Epoch rev:           07941
Checksum:              322

Satellite: CP4
Catalog number: 31132
Epoch time:      08290.59563720
Element set:     437
Inclination:      098.0311 deg
RA of node:       351.5767 deg
Eccentricity:    0.0084755
Arg of perigee:   311.9684 deg
Mean anomaly:     047.4313 deg
Mean motion:   14.55149385 rev/day
Decay rate:       1.96e-06 rev/day^2
Epoch rev:            7960
Checksum:              315

Satellite: CO-65
Catalog number: 32785
Epoch time:      08289.35051874
Element set:    0185
Inclination:      097.9809 deg
RA of node:       348.8932 deg
Eccentricity:    0.0015992
Arg of perigee:   104.0327 deg
Mean anomaly:     256.2667 deg
Mean motion:   14.81402786 rev/day
Decay rate:       4.24e-06 rev/day^2
Epoch rev:           02519
Checksum:              344

/EX
SB KEPS @ AMSAT  $ORB08290.W
Orbital Elements  08290.WEATHER

HR AMSAT ORBITAL ELEMENTS FOR WEATHER SATELLITES
FROM WA5QGD FORT WORTH,TX October 16, 2008
Send Subscribe/unsubscribe to KEPS at 
http://www.amsat.org/mailman/listinfo/keps
BID: ORB08290.W
TO ALL RADIO AMATEURS BT

Satellite: NOAA-10
Catalog number: 16969
Epoch time:      08290.49576999
Element set:     330
Inclination:      098.7158 deg
RA of node:       312.1892 deg
Eccentricity:    0.0012197
Arg of perigee:   184.0470 deg
Mean anomaly:     176.0626 deg
Mean motion:   14.27370722 rev/day
Decay rate:        5.4e-07 rev/day^2
Epoch rev:           14874
Checksum:              330

Satellite: NOAA-11
Catalog number: 19531
Epoch time:      08290.23544793
Element set:     361
Inclination:      098.7965 deg
RA of node:       017.8550 deg
Eccentricity:    0.0012305
Arg of perigee:   083.5112 deg
Mean anomaly:     276.7485 deg
Mean motion:   14.14880282 rev/day
Decay rate:       2.12e-06 rev/day^2
Epoch rev:            3502
Checksum:              290

Satellite: NOAA-12
Catalog number: 21263
Epoch time:      08290.55769588
Element set:     874
Inclination:      098.7723 deg
RA of node:       292.5314 deg
Eccentricity:    0.0013017
Arg of perigee:   129.8248 deg
Mean anomaly:     230.4077 deg
Mean motion:   14.25550073 rev/day
Decay rate:        6.1e-07 rev/day^2
Epoch rev:           90568
Checksum:              317

